Canyon City, OR

2:02 AM PDT on August 28, 2016 (GMT -0700)
Grant County Regional

Weather History for KGCD - December, 2013

Change the Weather History Date:

Monday, December 2, 2013

  Actual Average (KBNO) Record (KBNO)
Temperature  
Mean Temperature 38 °F 27 °F  
Max Temperature 50 °F 37 °F 61 °F (1975)
Min Temperature 27 °F 17 °F -2 °F (2006)
Degree Days  
Heating Degree Days 26 38  
Month to date heating degree days 76  
Since 1 July heating degree days 2077  
Cooling Degree Days 0 0  
Month to date cooling degree days 0  
Year to date cooling degree days 215  
Moisture  
Dew Point 32 °F    
Average Humidity 80    
Maximum Humidity 96    
Minimum Humidity 53    
Precipitation  
Precipitation 0.05 in 0.05 in 0.44 in (1962)
Month to date precipitation 0.10  
Year to date precipitation 9.47  
Sea Level Pressure  
Sea Level Pressure 29.81 in    
Wind  
Wind Speed 11 mph (West)    
Max Wind Speed 22 mph    
Max Gust Speed 30 mph    
Visibility 8 miles    
Events Rain , Snow    
T = Trace of Precipitation, MM = Missing Value Source: NWS Daily Summary

Daily Weather History Graph

Daily Weather History Graph

Search for Another Location

Airport or City:

Trip Planner

Search our weather history database for the weather conditions in past years. The results will help you decide how hot, cold, wet, or windy it might be!

Date:

Astronomy

Dec. 02, 2013 Rise Set
Actual Time 7:13 AM PST 4:17 PM PST
Civil Twilight 6:40 AM PST 4:50 PM PST
Nautical Twilight 6:04 AM PST 5:26 PM PST
Astronomical Twilight 5:29 AM PST 6:01 PM PST
Moon 6:42 AM PST (12/2) 4:26 PM PST (12/2)
Length of Visible Light 10h 09m
Length of Day
9h 03m
Waning Crescent, 0% of the Moon is Illuminated
Dec 2
Waning Crescent
Dec 2
New
Dec 9
First Quarter
Dec 17
Full
Dec 25
Last Quarter

Hourly Weather History & Observations

Time (PST) Temp. Windchill Dew Point Humidity Pressure Visibility Wind Dir Wind Speed Gust Speed Precip Events Conditions
12:15 AM 50.5 °F - 34.2 °F 53% 29.89 in 10.0 mi SW 16.1 mph 23.0 mph N/A   Overcast
12:35 AM 50.5 °F - 34.7 °F 55% 29.88 in 10.0 mi WSW 19.6 mph 25.3 mph N/A   Overcast
12:55 AM 50.4 °F - 35.6 °F 57% 29.88 in 10.0 mi SW 15.0 mph 24.2 mph N/A   Light Drizzle
1:15 AM 49.5 °F - 35.8 °F 59% 29.88 in 10.0 mi WSW 12.7 mph 16.1 mph N/A Rain Light Rain
1:35 AM 48.7 °F - 36.5 °F 63% 29.87 in 10.0 mi West 9.2 mph - N/A   Light Drizzle
1:55 AM 46.6 °F - 39.2 °F 75% 29.87 in 10.0 mi WNW 6.9 mph - N/A   Drizzle
2:15 AM 45.5 °F 44.2 °F 39.9 °F 81% 29.87 in 10.0 mi West 3.5 mph - N/A   Drizzle
2:35 AM 45.5 °F 44.2 °F 39.7 °F 80% 29.85 in 10.0 mi SW 3.5 mph - N/A Rain Rain
2:55 AM 45.5 °F 43.2 °F 39.9 °F 81% 29.85 in 10.0 mi WSW 4.6 mph - 0.01 in Rain Light Rain
3:15 AM 45.5 °F - 40.1 °F 81% 29.84 in 10.0 mi Calm Calm - N/A   Light Drizzle
3:35 AM 45.9 °F 44.6 °F 39.6 °F 79% 29.83 in 10.0 mi West 3.5 mph - 0.01 in Rain Light Rain
3:55 AM 45.9 °F 44.6 °F 39.2 °F 78% 29.81 in 10.0 mi WNW 3.5 mph - 0.01 in   Light Drizzle
4:15 AM 46.8 °F - 38.5 °F 73% 29.80 in 10.0 mi WSW 11.5 mph - N/A   Overcast
4:35 AM 46.8 °F - 38.7 °F 73% 29.81 in 10.0 mi SW 16.1 mph 25.3 mph N/A   Overcast
4:55 AM 46.8 °F - 38.3 °F 72% 29.80 in 10.0 mi SW 16.1 mph 24.2 mph N/A   Overcast
5:15 AM 47.3 °F - 37.6 °F 69% 29.78 in 10.0 mi WSW 21.9 mph 27.6 mph N/A   Overcast
5:35 AM 47.3 °F - 37.0 °F 68% 29.78 in 10.0 mi WSW 16.1 mph 29.9 mph N/A   Overcast
5:55 AM 47.3 °F - 36.5 °F 66% 29.77 in 10.0 mi WSW 16.1 mph 23.0 mph N/A   Overcast
6:15 AM 46.8 °F - 36.5 °F 67% 29.76 in 10.0 mi WSW 16.1 mph 26.5 mph N/A   Overcast
6:35 AM 46.8 °F - 36.7 °F 68% 29.76 in 10.0 mi WSW 17.3 mph 21.9 mph N/A   Overcast
6:55 AM 46.4 °F 38.7 °F 36.7 °F 69% 29.75 in 10.0 mi WSW 20.7 mph 26.5 mph N/A   Overcast
7:15 AM 46.4 °F 39.5 °F 36.5 °F 68% 29.74 in 10.0 mi WSW 17.3 mph 25.3 mph N/A   Overcast
7:35 AM 46.4 °F 40.1 °F 36.3 °F 68% 29.74 in 10.0 mi West 15.0 mph 18.4 mph N/A   Overcast
7:55 AM 46.4 °F 39.5 °F 36.5 °F 68% 29.74 in 10.0 mi WSW 17.3 mph 26.5 mph N/A   Overcast
8:15 AM 46.4 °F 40.7 °F 36.5 °F 68% 29.73 in 10.0 mi West 12.7 mph 23.0 mph N/A   Overcast
8:35 AM 45.5 °F 38.9 °F 36.5 °F 71% 29.73 in 10.0 mi WNW 15.0 mph - N/A   Overcast
8:55 AM 43.9 °F 37.5 °F 38.1 °F 80% 29.73 in 10.0 mi West 12.7 mph 21.9 mph N/A   Drizzle
9:15 AM 44.1 °F 38.6 °F 37.6 °F 78% 29.73 in 10.0 mi West 10.4 mph - N/A   Overcast
9:35 AM 43.3 °F 39.2 °F 38.5 °F 83% 29.73 in 7.0 mi West 6.9 mph - N/A   Light Drizzle
9:55 AM 43.3 °F 38.1 °F 38.8 °F 84% 29.73 in 10.0 mi WSW 9.2 mph - N/A   Overcast
10:15 AM 43.3 °F 37.7 °F 38.7 °F 84% 29.72 in 7.0 mi WNW 10.4 mph 18.4 mph N/A   Drizzle
10:35 AM 42.8 °F 37.5 °F 38.7 °F 85% 29.72 in 10.0 mi West 9.2 mph - N/A   Drizzle
10:55 AM 41.9 °F 35.0 °F 38.1 °F 86% 29.72 in 5.0 mi NNW 12.7 mph - 0.01 in Rain Light Rain
11:15 AM 36.5 °F 27.0 °F 33.4 °F 89% 29.74 in 7.0 mi NNW 16.1 mph 24.2 mph N/A Rain Light Rain
11:35 AM 36.5 °F 26.7 °F 32.7 °F 86% 29.76 in 5.0 mi NNW 17.3 mph 23.0 mph 0.01 in Snow Light Snow
11:55 AM 35.4 °F 26.8 °F 32.0 °F 87% 29.77 in 5.0 mi WNW 12.7 mph 21.9 mph 0.01 in Snow Light Snow
12:15 PM 34.3 °F 25.0 °F 32.7 °F 94% 29.77 in 2.0 mi West 13.8 mph - N/A Snow Light Snow
12:35 PM 33.8 °F 23.5 °F 32.2 °F 94% 29.79 in 5.0 mi West 16.1 mph - N/A   Overcast
12:55 PM 33.3 °F 22.8 °F 32.0 °F 95% 29.80 in 5.0 mi West 16.1 mph 21.9 mph N/A Snow Light Snow
1:15 PM 32.7 °F 22.5 °F 31.6 °F 96% 29.80 in 0.8 mi West 15.0 mph 23.0 mph N/A Snow Light Snow
1:35 PM 32.0 °F 23.6 °F 30.9 °F 96% 29.79 in 1.2 mi WSW 10.4 mph - 0.01 in Snow Light Snow
1:55 PM 32.0 °F 24.2 °F 30.2 °F 93% 29.80 in 7.0 mi WSW 9.2 mph - 0.01 in Snow Light Snow
2:15 PM 32.0 °F 24.2 °F 29.7 °F 91% 29.80 in 1.5 mi West 9.2 mph - N/A Snow Light Snow
2:35 PM 32.0 °F 24.8 °F 29.1 °F 89% 29.80 in 10.0 mi WSW 8.1 mph - N/A Snow Light Snow
2:55 PM 32.0 °F 24.2 °F 28.9 °F 88% 29.81 in 4.0 mi WSW 9.2 mph - N/A Snow Light Snow
3:15 PM 32.0 °F 20.8 °F 29.1 °F 89% 29.82 in 1.5 mi West 17.3 mph - N/A Snow Light Snow
3:35 PM 31.5 °F 22.3 °F 29.3 °F 92% 29.82 in 3.0 mi WSW 11.5 mph 16.1 mph N/A Snow Light Snow
3:55 PM 31.6 °F 23.7 °F 28.6 °F 88% 29.83 in 10.0 mi West 9.2 mph - N/A   Overcast
4:15 PM 31.1 °F 25.4 °F 26.4 °F 83% 29.83 in 10.0 mi West 5.8 mph - N/A   Mostly Cloudy
4:35 PM 30.9 °F 22.8 °F 25.9 °F 82% 29.83 in 10.0 mi West 9.2 mph - N/A   Mostly Cloudy
4:55 PM 29.1 °F 21.3 °F 27.1 °F 92% 29.85 in 4.0 mi NNW 8.1 mph - N/A Snow Light Snow
5:15 PM 28.4 °F 24.6 °F 26.6 °F 93% 29.85 in 5.0 mi NNW 3.5 mph - N/A Snow Light Snow
5:35 PM 27.1 °F - 25.7 °F 94% 29.85 in 10.0 mi Calm Calm - N/A   Scattered Clouds
5:55 PM 27.9 °F 21.5 °F 25.0 °F 89% 29.85 in 10.0 mi NNW 5.8 mph - N/A   Clear
6:15 PM 28.4 °F - 23.9 °F 83% 29.85 in 10.0 mi Calm Calm - N/A   Clear
6:35 PM 28.4 °F - 23.7 °F 83% 29.86 in 10.0 mi Calm Calm - N/A   Scattered Clouds
6:55 PM 29.5 °F - 23.2 °F 77% 29.86 in 10.0 mi Calm Calm - N/A   Overcast
7:15 PM 27.7 °F 21.3 °F 22.1 °F 80% 29.86 in 10.0 mi NNW 5.8 mph - N/A   Mostly Cloudy
7:35 PM 27.7 °F - 22.1 °F 80% 29.86 in 10.0 mi Calm Calm - N/A   Mostly Cloudy
7:55 PM 28.4 °F - 22.5 °F 78% 29.87 in 10.0 mi Calm Calm - N/A   Overcast
8:15 PM 28.4 °F - 22.3 °F 78% 29.86 in 10.0 mi Calm Calm - N/A   Overcast
8:35 PM 28.0 °F 24.2 °F 22.8 °F 81% 29.86 in 10.0 mi NNW 3.5 mph - N/A   Overcast
8:55 PM 28.4 °F - 23.0 °F 80% 29.86 in 10.0 mi Calm Calm - N/A   Overcast
9:15 PM 28.4 °F 22.2 °F 23.5 °F 82% 29.86 in 10.0 mi NNW 5.8 mph - N/A   Overcast
9:35 PM 28.9 °F 21.9 °F 23.2 °F 79% 29.86 in 7.0 mi West 6.9 mph - N/A Snow Light Snow
9:55 PM 28.8 °F 19.5 °F 23.0 °F 79% 29.86 in 5.0 mi West 10.4 mph - N/A Snow Light Snow
10:15 PM 28.4 °F 22.2 °F 22.8 °F 80% 29.86 in 10.0 mi West 5.8 mph - N/A   Overcast
10:35 PM 28.4 °F 19.7 °F 22.3 °F 78% 29.85 in 10.0 mi West 9.2 mph - N/A   Overcast
10:55 PM 27.5 °F 19.3 °F 21.9 °F 80% 29.86 in 10.0 mi West 8.1 mph - N/A   Overcast
11:15 PM 28.2 °F 22.0 °F 22.1 °F 78% 29.86 in 10.0 mi West 5.8 mph - N/A   Overcast
11:35 PM 27.3 °F 22.0 °F 22.5 °F 82% 29.86 in 10.0 mi West 4.6 mph - N/A   Overcast
11:55 PM 27.5 °F 19.3 °F 23.9 °F 86% 29.86 in 7.0 mi West 8.1 mph - N/A Snow Light Snow